This is the latest recevied weather packets stored in our database for station/object IZ8QAD-11. If no packets are shown the sender has not sent any weather packets the latest 10 day(s).
| Time | Temp. | Humidity | Pressure | Rain* | Wind** | Luminosity | Snow |
|---|---|---|---|---|---|---|---|
| 1777578132 | 11.67° C | 58% | 973.7 hPa | - | - | - | - |
| 1777574530 | 12.78° C | 59% | 973.3 hPa | - | - | - | - |
| 1777570930 | 14.44° C | 58% | 972.4 hPa | - | - | - | - |
| 1777567329 | 15.56° C | 58% | 972.2 hPa | - | - | - | - |
| 1777560127 | 23.33° C | 58% | 971.5 hPa | - | - | - | - |
| 1777556526 | 22.22° C | 60% | 971.3 hPa | - | - | - | - |
| 1777552925 | 21.67° C | 67% | 971.6 hPa | - | - | - | - |
| 1777549325 | 18.89° C | 69% | 971.9 hPa | - | - | - | - |
| 1777545724 | 18.33° C | 71% | 971.6 hPa | - | - | - | - |
| 1777542124 | 17.22° C | 73% | 971.5 hPa | - | - | - | - |
| 1777538522 | 17.22° C | 70% | 971.2 hPa | - | - | - | - |
| 1777534921 | 16.11° C | 66% | 970.5 hPa | - | - | - | - |
| 1777531321 | 14.44° C | 60% | 970.3 hPa | - | - | - | - |
| 1777527720 | 13.89° C | 53% | 970.2 hPa | - | - | - | - |
| 1777524119 | 14.44° C | 50% | 969.3 hPa | - | - | - | - |
| 1777520518 | 13.89° C | 48% | 969.6 hPa | - | - | - | - |
| 1777516917 | 15° C | 46% | 969.3 hPa | - | - | - | - |
| 1777513317 | 15° C | 45% | 969.3 hPa | - | - | - | - |
| 1777509716 | 15° C | 45% | 968.8 hPa | - | - | - | - |
| 1777506115 | 15° C | 43% | 969.1 hPa | - | - | - | - |
| 1777502514 | 16.11° C | 40% | 969.2 hPa | - | - | - | - |
| 1777498914 | 16.11° C | 40% | 968.7 hPa | - | - | - | - |
| 1777491712 | 17.22° C | 36% | 968.9 hPa | - | - | - | - |
| 1777488111 | 18.89° C | 35% | 967.9 hPa | - | - | - | - |
| 1777484510 | 21.11° C | 33% | 967.6 hPa | - | - | - | - |
* Rain since midnight (hover to see other rain measurements)
** Current wind speed in m/s (hover to see current wind gust speed)